Temperature
16 13 13 14 15 16 16 15 15 15 15 13 11 9 8 9 8 8 8 8 8 8 8 7 7 7 7 6 6 6 6 6 6 6 6 7 7 7 8 9 10 10 10 10
13 14 15 15 15 14 15 15 14 14 14 12 9 8 8 8 8 8 8 8 7 7 7 7 6 6 6 6 5 5 5 5 5 4 4 4 5 5 6 7 8 8 9 9
14 14 15 14 13 13 14 14 14 13 12 11 9 8 8 8 8 8 7 7 7 6 6 6 5 5 5 5 4 4 4 4 4 4 3 3 4 4 4 5 6 7 8 8
13 14 14 13 13 13 12 14 13 13 11 10 10 8 7 7 6 6 6 6 6 5 5 5 4 4 4 3 3 3 3 3 3 3 3 3 3 3 3 3 4 5 6 7
14 14 13 13 13 13 12 12 11 11 10 10 10 8 6 7 6 5 5 5 5 4 4 4 3 3 3 3 2 2 2 2 2 2 2 2 2 2 2 2 3 4 5 6
14 14 14 13 13 12 11 10 11 9 9 11 12 8 5 5 5 4 4 4 4 4 3 3 2 2 2 2 1 1 1 1 1 1 1 1 1 1 1 2 2 2 3 4
11 13 13 13 12 11 9 9 9 10 9 10 9 6 5 5 4 4 4 4 3 3 2 2 1 1 1 1 0 -0 -0 -0 -0 -0 -0 -0 -0 0 0 0 0 1 1 2
10 11 12 12 12 11 11 10 9 9 8 8 7 5 4 4 5 4 4 3 2 2 2 1 0 0 -0 -0 -1 -1 -1 -1 -1 -1 -1 -1 -1 -1 -0 -0 -1 -1 -1 0
9 10 11 12 12 12 11 10 10 8 7 7 6 5 4 4 3 3 3 2 2 1 1 -0 -1 -1 -1 -2 -2 -2 -2 -2 -2 -2 -2 -2 -1 -1 -1 -1 -1 -2 -2 -1
10 9 9 10 12 12 11 10 7 8 8 7 7 5 3 2 2 2 2 2 1 0 -1 -1 -2 -2 -3 -3 -3 -3 -3 -3 -3 -3 -3 -3 -3 -2 -3 -3 -3 -3 -3 -2
8 9 8 9 10 10 10 9 7 6 6 6 5 4 4 3 2 1 2 1 0 -1 -2 -2 -2 -3 -3 -4 -4 -5 -4 -5 -5 -5 -5 -4 -4 -4 -4 -4 -4 -4 -4 -3
7 6 7 8 9 9 10 8 7 6 5 4 3 3 3 3 3 2 1 0 -1 -2 -2 -3 -3 -4 -4 -5 -5 -6 -6 -6 -6 -6 -6 -6 -6 -5 -5 -5 -5 -5 -4 -4
7 6 7 9 9 7 8 7 7 6 4 3 3 3 3 2 2 1 0 -1 -2 -2 -3 -4 -4 -5 -6 -6 -6 -7 -7 -7 -7 -7 -7 -7 -7 -7 -6 -6 -6 -5 -5 -4
7 6 7 8 8 6 6 6 7 5 3 2 2 1 1 1 0 1 0 -1 -2 -3 -4 -5 -6 -7 -7 -7 -8 -8 -8 -8 -8 -8 -8 -8 -8 -8 -7 -7 -6 -6 -6 -5
6 5 6 6 6 5 5 4 5 4 3 2 2 1 1 -0 0 0 -1 -2 -3 -4 -5 -6 -7 -8 -8 -8 -8 -9 -9 -9 -9 -9 -9 -9 -9 -8 -8 -7 -7 -7 -6 -6
5 5 5 4 4 4 3 3 3 3 3 2 1 1 1 1 0 -0 -2 -4 -4 -5 -6 -7 -8 -9 -9 -10 -10 -10 -10 -10 -10 -10 -9 -9 -9 -9 -9 -8 -8 -8 -7 -7
4 4 4 2 2 3 1 2 3 3 2 2 0 0 1 -0 -0 -1 -3 -4 -5 -6 -7 -8 -9 -9 -10 -10 -11 -11 -10 -10 -10 -10 -10 -10 -10 -9 -9 -9 -9 -9 -8 -8
3 3 1 1 1 2 2 3 3 3 2 2 1 0 0 -0 -1 -1 -4 -4 -5 -7 -8 -8 -9 -10 -10 -11 -11 -11 -10 -10 -10 -10 -10 -10 -10 -10 -10 -10 -10 -9 -9 -9
3 2 0 -1 1 0 2 3 3 2 1 2 1 0 -0 -1 -1 -2 -4 -5 -6 -7 -8 -9 -10 -10 -11 -11 -11 -11 -11 -11 -10 -11 -11 -11 -11 -11 -11 -10 -10 -10 -10 -9
2 0 -1 -1 1 1 2 3 4 2 0 1 1 -1 -2 -3 -3 -3 -4 -6 -7 -8 -9 -9 -10 -10 -11 -11 -11 -11 -11 -11 -12 -12 -12 -12 -12 -12 -12 -11 -11 -11 -11 -10
2 1 -0 -0 -1 -1 2 3 2 -0 -0 2 1 -1 -2 -4 -4 -4 -6 -7 -8 -8 -9 -9 -10 -11 -11 -11 -11 -12 -12 -12 -12 -12 -12 -12 -13 -13 -13 -12 -12 -11 -11 -11
1 -0 -0 -1 -2 -1 3 3 1 1 2 1 -0 -1 -3 -4 -5 -6 -7 -8 -8 -9 -9 -9 -10 -11 -11 -12 -12 -12 -13 -13 -13 -13 -13 -13 -13 -13 -13 -13 -13 -12 -12 -12
0 0 -1 -1 -0 2 3 2 2 1 1 0 -1 -2 -3 -4 -6 -7 -8 -8 -9 -9 -10 -10 -11 -11 -11 -12 -13 -13 -13 -13 -13 -13 -14 -14 -14 -14 -14 -14 -14 -13 -13 -12
1 1 -1 0 0 2 2 2 2 1 1 -0 -1 -2 -4 -5 -7 -7 -8 -9 -9 -10 -10 -11 -11 -11 -12 -12 -13 -13 -14 -14 -14 -14 -14 -14 -15 -14 -14 -14 -14 -14 -14 -13
0 0 -1 -0 1 2 2 2 1 1 -0 -1 -2 -3 -5 -6 -7 -8 -9 -9 -10 -10 -11 -11 -11 -12 -12 -13 -13 -14 -14 -14 -14 -14 -14 -15 -15 -15 -15 -15 -15 -15 -14 -14
0 -1 -1 -1 1 1 2 1 1 -0 -1 -2 -3 -5 -6 -7 -8 -8 -9 -9 -10 -10 -11 -11 -11 -12 -12 -13 -13 -14 -14 -14 -14 -14 -15 -15 -15 -15 -15 -15 -15 -15 -15 -14
Wind_Speed
6 8 6 6 4 1 1 2 3 2 4 5 10 10 7 5 9 9 9 9 10 9 9 9 10 10 10 11 11 11 11 11 9 8 8 9 10 12 12 11 19 21 20 19
8 6 6 4 6 7 5 3 4 5 5 5 10 8 5 5 6 7 8 9 9 10 12 12 12 12 13 13 14 14 13 13 11 8 6 5 6 6 9 8 15 19 20 19
8 4 5 6 9 8 4 2 2 5 6 4 9 5 4 5 6 8 9 9 10 12 12 13 13 13 13 14 15 16 15 14 12 10 6 7 5 6 8 11 13 17 21 20
6 6 7 7 5 5 5 5 5 5 3 3 4 4 4 3 7 9 10 11 11 11 11 11 12 13 13 13 13 13 13 13 12 10 7 8 8 7 7 9 10 16 19 18
4 4 7 7 6 5 7 9 7 4 5 2 1 4 1 3 6 8 9 10 11 11 12 12 12 12 12 12 12 12 13 12 11 10 9 8 8 7 8 10 13 14 15 16
3 3 3 4 5 4 6 7 5 5 4 1 2 4 2 4 5 7 9 10 11 11 11 11 11 11 11 12 12 13 13 11 11 10 9 9 10 11 13 14 14 14 13 14
8 4 5 5 7 9 10 8 7 8 5 4 4 7 5 6 7 8 8 9 10 10 10 10 11 12 13 14 14 14 14 13 12 11 10 9 10 11 12 13 14 15 14 14
8 6 6 5 3 3 5 5 4 2 5 6 5 6 6 5 6 6 7 7 9 10 9 10 11 13 14 16 17 17 16 14 14 13 12 10 11 11 11 14 14 14 13 14
4 6 6 4 2 1 3 2 3 4 4 5 2 5 6 4 6 7 9 10 10 10 9 10 11 12 13 15 16 16 17 16 16 15 14 12 13 14 15 15 15 14 14 15
1 5 6 7 4 4 2 2 5 2 4 6 5 2 1 7 9 10 11 11 11 10 9 9 10 11 13 14 15 16 17 18 18 17 15 15 15 15 16 15 17 17 17 17
4 1 7 6 4 5 6 4 4 1 2 3 5 2 4 5 7 9 10 11 11 10 10 11 11 12 14 15 16 18 19 19 19 18 17 16 16 16 16 15 16 16 16 17
4 2 4 6 5 3 2 4 4 1 5 2 3 2 6 4 6 7 10 10 9 9 9 11 12 14 15 17 18 19 19 19 19 18 18 17 17 16 16 16 16 16 16 17
4 3 5 5 4 7 5 3 2 3 2 2 3 3 2 5 8 9 11 10 8 9 12 12 12 14 16 17 18 18 18 18 18 18 17 16 16 16 16 16 16 16 16 16
3 2 3 4 4 4 7 5 1 2 1 2 3 7 7 12 14 16 16 11 9 11 14 14 14 14 15 16 17 17 17 17 18 17 16 16 15 15 16 16 16 15 15 14
3 0 3 4 2 2 3 5 3 4 3 1 5 6 6 10 10 11 10 9 12 14 16 16 15 15 15 16 16 16 16 16 16 16 15 14 14 14 14 15 15 14 14 13
3 1 3 4 5 4 5 8 6 5 3 2 4 5 6 10 8 10 7 10 13 14 15 15 15 16 16 16 16 16 16 16 15 15 15 14 14 13 13 14 14 14 13 12
2 2 1 4 6 4 4 4 4 2 1 1 3 7 10 10 13 13 7 10 13 14 13 13 14 14 13 13 14 14 14 14 14 14 15 15 14 14 13 14 14 13 12 11
4 3 2 2 6 2 4 3 1 2 2 2 5 8 9 9 12 5 4 8 10 11 11 11 11 12 10 10 12 12 12 12 13 13 14 15 14 14 13 13 13 12 10 10
3 5 4 3 2 6 3 4 4 3 4 2 5 9 9 10 7 1 5 7 7 8 8 8 8 9 10 11 12 11 11 11 12 14 15 15 15 14 13 13 13 10 9 9
5 5 5 3 1 5 4 6 4 0 4 4 5 7 8 10 11 5 8 9 7 7 7 8 8 8 10 11 11 10 10 12 13 14 14 14 14 14 12 13 12 10 9 9
1 3 3 4 4 7 5 5 3 3 6 7 5 5 6 5 6 10 10 8 6 7 8 8 8 8 9 11 10 9 9 12 14 14 14 14 13 13 11 11 10 11 10 9
7 5 5 4 3 7 5 1 2 5 5 4 3 4 5 8 8 9 8 7 7 8 9 9 8 9 9 9 9 9 10 12 13 13 14 13 12 12 13 11 10 10 10 9
7 7 6 8 7 5 2 3 3 4 3 3 3 4 5 6 6 7 6 6 6 7 8 7 8 9 9 9 8 9 11 12 13 13 13 12 11 11 12 11 9 9 9 9
3 3 4 3 4 3 4 3 2 1 2 3 2 3 3 4 5 5 6 7 7 7 7 7 8 9 8 9 9 8 10 12 12 12 12 11 8 10 10 10 10 9 9 10
6 5 4 3 3 1 1 2 2 2 1 1 1 2 2 3 4 4 5 6 6 7 6 7 8 8 8 9 9 11 11 11 10 11 11 11 10 8 8 9 9 11 8 12
4 6 7 6 5 4 4 4 3 2 1 0 1 2 3 4 4 5 5 5 6 7 6 7 8 9 9 9 10 10 11 10 10 11 11 10 8 8 8 7 8 13 15 18
Wind_Direction
44 56 26 341 348 57 287 330 327 309 29 56 103 104 87 70 71 67 55 46 40 29 9 7 7 3 360 358 356 354 355 351 353 355 358 357 353 347 342 337 334 331 327 319
48 33 335 16 39 51 45 62 2 322 9 73 100 91 76 64 71 74 64 48 37 24 11 6 4 2 359 356 353 352 350 345 344 341 337 334 331 328 329 326 329 329 326 319
87 347 360 61 37 21 7 144 260 285 344 70 114 90 83 50 53 47 37 34 28 27 13 5 3 359 358 357 353 351 343 339 336 332 330 332 331 331 342 341 335 330 326 317
57 4 37 45 29 10 304 252 268 271 304 243 176 175 168 99 54 39 28 26 21 13 7 2 359 358 360 356 350 345 340 337 335 334 338 344 350 341 329 328 323 324 324 320
45 22 37 23 339 332 277 289 289 256 196 251 319 131 156 93 60 35 23 20 15 8 2 357 358 357 357 352 348 342 338 338 337 339 340 344 344 334 328 331 327 327 325 324
37 42 48 337 323 337 317 344 23 58 82 4 351 133 62 21 66 44 23 15 7 359 352 352 355 356 352 348 346 343 341 339 340 342 341 343 344 339 339 339 335 332 328 328
355 8 6 3 358 3 22 33 17 5 5 276 46 90 90 67 69 57 29 10 357 348 346 353 357 355 351 348 348 346 345 344 345 344 343 343 347 342 340 339 335 332 329 330
16 330 338 357 21 337 7 81 97 294 277 295 17 103 122 97 71 49 25 3 349 346 351 1 359 355 352 350 349 348 347 346 347 350 346 348 354 350 344 339 335 330 329 327
23 295 312 326 341 66 26 50 163 172 287 281 284 127 152 65 34 19 7 357 349 346 352 358 354 353 350 349 348 348 349 350 352 353 349 352 355 351 345 340 337 334 330 326
12 292 301 317 2 8 54 97 57 49 306 293 293 136 348 2 0 359 355 346 338 340 349 353 351 351 352 350 349 351 355 355 354 355 354 353 351 348 343 341 340 337 332 329
41 307 313 357 32 342 2 44 62 70 205 251 292 334 69 32 3 346 336 333 335 342 347 352 352 355 354 353 355 356 357 356 355 353 351 351 349 346 342 341 339 337 334 331
13 96 296 290 297 332 58 76 89 28 292 258 252 232 69 21 342 332 328 329 334 344 346 351 354 356 356 357 356 355 354 354 352 350 349 350 348 344 342 341 339 339 339 337
21 81 340 351 351 5 27 41 113 155 177 252 255 256 71 347 333 336 339 338 338 348 350 354 359 358 356 356 354 353 352 351 349 348 348 348 347 343 341 340 340 342 345 347
88 97 192 241 278 320 313 319 287 129 142 286 283 299 323 346 344 340 341 343 345 351 353 356 357 355 354 355 352 349 348 348 347 346 345 345 343 341 340 341 343 345 348 352
88 185 275 272 341 348 357 349 25 87 101 164 293 297 314 322 310 310 321 338 348 350 353 354 353 352 353 353 350 347 345 344 343 341 341 338 337 339 341 342 344 347 349 352
73 107 341 318 14 37 50 22 43 60 53 347 326 300 289 294 294 318 339 350 348 349 350 350 351 351 352 351 346 344 342 341 340 340 338 336 337 339 342 344 346 346 346 346
68 91 40 294 332 53 22 359 29 16 20 338 289 275 293 308 321 322 345 352 348 346 347 350 351 349 348 344 341 338 336 337 340 340 339 339 340 341 341 345 346 343 340 339
123 108 117 322 21 360 239 238 241 271 202 209 262 278 286 290 297 303 29 353 345 347 349 352 350 344 339 334 334 332 333 337 339 341 342 342 342 341 341 345 344 340 337 337
118 129 105 88 339 286 265 272 271 271 253 224 290 299 308 315 307 177 36 8 352 356 357 354 348 335 329 330 331 332 335 339 343 344 343 342 343 341 343 346 343 339 339 343
64 86 108 113 270 264 240 258 283 181 276 264 296 309 320 336 337 327 4 4 4 10 2 354 343 332 332 330 332 333 336 342 344 342 339 339 341 340 341 343 340 339 338 345
82 67 124 167 228 265 252 272 51 83 277 296 311 319 321 315 293 315 345 356 12 11 358 349 337 330 327 327 332 334 336 340 339 338 337 338 340 338 341 338 337 340 342 343
177 168 192 163 207 262 253 124 148 236 257 272 276 279 284 286 301 325 340 349 5 360 350 343 335 330 325 326 333 336 337 335 336 337 337 336 338 344 347 338 337 339 341 340
187 188 186 188 211 227 226 170 198 225 262 263 252 265 278 293 313 329 338 352 358 350 338 331 326 323 322 325 332 333 332 334 338 337 335 332 341 343 343 340 338 339 342 341
237 148 144 218 250 210 174 183 218 239 259 254 248 281 295 304 318 333 343 350 347 336 330 325 327 325 324 326 333 327 327 333 336 335 333 332 339 341 339 343 346 343 343 343
216 167 167 233 270 174 234 323 318 298 278 269 327 329 345 340 345 352 348 342 333 333 324 326 321 319 323 326 327 329 331 330 331 332 332 332 337 329 331 339 340 342 336 345
201 173 174 215 217 189 257 306 332 325 330 126 325 347 37 36 14 360 344 330 322 322 319 321 322 331 327 325 323 322 325 326 326 334 333 330 330 330 330 323 329 337 341 344
Height
1539 1544 1551 1549 1546 1545 1545 1547 1548 1544 1542 1545 1554 1561 1563 1562 1559 1559 1558 1557 1556 1555 1553 1550 1546 1542 1538 1533 1529 1524 1520 1515 1511 1506 1501 1496 1493 1490 1487 1484 1481 1479 1477 1475
1546 1551 1548 1546 1545 1545 1546 1548 1550 1547 1544 1549 1560 1564 1565 1564 1563 1562 1561 1560 1559 1557 1554 1550 1547 1542 1538 1534 1529 1524 1519 1515 1510 1505 1501 1497 1492 1488 1484 1479 1476 1472 1469 1467
1552 1553 1547 1547 1549 1550 1549 1550 1549 1550 1548 1550 1559 1567 1567 1567 1566 1565 1564 1563 1562 1559 1556 1552 1548 1544 1539 1534 1529 1524 1519 1514 1509 1503 1498 1493 1487 1483 1478 1472 1468 1465 1462 1459
1553 1552 1550 1551 1551 1552 1554 1546 1546 1547 1552 1557 1554 1567 1570 1569 1569 1568 1567 1566 1564 1561 1557 1553 1548 1544 1539 1534 1529 1523 1517 1512 1506 1501 1495 1489 1483 1478 1474 1469 1464 1460 1456 1452
1556 1554 1554 1555 1554 1552 1550 1544 1545 1545 1550 1554 1552 1564 1574 1570 1572 1573 1571 1568 1565 1562 1558 1553 1548 1543 1538 1532 1526 1520 1514 1509 1503 1498 1492 1487 1482 1476 1471 1465 1460 1454 1450 1446
1556 1555 1555 1556 1553 1552 1549 1547 1544 1549 1554 1556 1549 1561 1577 1575 1576 1576 1573 1570 1567 1563 1558 1553 1548 1543 1537 1530 1524 1517 1511 1505 1500 1495 1490 1485 1479 1473 1467 1461 1455 1449 1444 1440
1565 1559 1558 1556 1556 1554 1555 1561 1564 1563 1565 1559 1557 1569 1582 1580 1578 1577 1575 1572 1568 1563 1557 1552 1546 1540 1534 1527 1520 1514 1507 1501 1496 1491 1486 1481 1476 1470 1464 1458 1451 1446 1440 1436
1575 1571 1562 1559 1560 1561 1561 1565 1576 1578 1575 1569 1562 1577 1585 1582 1580 1578 1576 1572 1567 1562 1556 1551 1545 1539 1532 1525 1518 1511 1504 1498 1493 1488 1483 1478 1472 1467 1461 1455 1449 1444 1439 1434
1578 1574 1563 1560 1559 1559 1561 1566 1567 1576 1575 1575 1570 1579 1584 1581 1580 1578 1575 1571 1566 1561 1555 1549 1544 1537 1530 1523 1516 1509 1502 1496 1491 1485 1480 1475 1469 1464 1458 1452 1447 1441 1436 1432
1576 1578 1568 1563 1560 1560 1562 1564 1574 1575 1577 1576 1569 1577 1585 1584 1581 1578 1574 1569 1564 1559 1553 1547 1541 1534 1528 1521 1514 1507 1501 1495 1490 1484 1479 1473 1467 1462 1456 1450 1444 1439 1434 1429
1577 1578 1574 1569 1566 1568 1566 1568 1573 1579 1581 1584 1582 1586 1585 1585 1582 1579 1575 1570 1564 1558 1551 1545 1539 1532 1525 1519 1512 1505 1499 1493 1488 1482 1477 1471 1465 1459 1454 1449 1443 1438 1432 1427
1580 1582 1582 1575 1569 1567 1568 1572 1577 1584 1584 1586 1591 1592 1586 1585 1582 1579 1574 1568 1563 1557 1551 1544 1537 1530 1523 1516 1510 1503 1498 1492 1487 1481 1475 1470 1464 1458 1452 1447 1442 1437 1431 1426
1581 1584 1584 1575 1576 1574 1574 1575 1576 1580 1587 1590 1591 1591 1584 1583 1580 1576 1571 1565 1559 1554 1548 1542 1535 1528 1522 1515 1509 1503 1497 1491 1486 1480 1474 1468 1462 1457 1451 1446 1441 1436 1431 1426
1581 1585 1585 1582 1580 1581 1580 1578 1576 1580 1590 1592 1589 1590 1584 1581 1576 1571 1566 1561 1556 1551 1546 1540 1534 1528 1521 1515 1508 1502 1496 1491 1485 1479 1473 1468 1462 1456 1450 1445 1440 1436 1431 1426
1582 1586 1583 1582 1583 1582 1583 1583 1579 1582 1586 1591 1591 1589 1585 1581 1577 1571 1565 1560 1555 1550 1544 1539 1533 1527 1521 1514 1508 1502 1496 1490 1484 1479 1473 1467 1462 1456 1450 1445 1440 1435 1431 1426
1583 1586 1585 1585 1585 1585 1587 1587 1585 1586 1587 1588 1588 1587 1582 1578 1574 1568 1562 1558 1553 1549 1544 1538 1533 1527 1520 1514 1507 1501 1495 1490 1484 1478 1473 1467 1461 1455 1450 1444 1440 1435 1431 1426
1586 1588 1590 1594 1592 1587 1595 1591 1589 1588 1587 1588 1590 1587 1579 1575 1570 1565 1559 1556 1552 1548 1543 1537 1532 1526 1520 1514 1508 1502 1496 1490 1484 1478 1473 1467 1461 1456 1450 1445 1440 1435 1430 1426
1587 1589 1594 1598 1597 1599 1596 1589 1588 1587 1587 1586 1584 1581 1577 1573 1568 1563 1559 1555 1551 1546 1541 1536 1531 1525 1519 1514 1508 1502 1496 1490 1484 1478 1472 1467 1461 1456 1451 1445 1440 1435 1431 1426
1584 1588 1597 1604 1600 1598 1593 1587 1586 1586 1586 1584 1581 1577 1573 1568 1563 1561 1557 1553 1550 1545 1540 1535 1529 1524 1518 1513 1507 1501 1495 1489 1483 1477 1472 1466 1461 1456 1450 1445 1440 1435 1431 1426
1586 1589 1598 1603 1600 1598 1591 1585 1583 1585 1585 1581 1578 1575 1572 1566 1562 1560 1556 1551 1547 1543 1538 1532 1527 1522 1517 1511 1506 1500 1494 1488 1482 1476 1471 1466 1461 1455 1450 1445 1440 1435 1431 1427
1589 1593 1598 1600 1604 1595 1587 1583 1584 1590 1589 1579 1576 1573 1570 1567 1565 1559 1553 1549 1545 1540 1535 1530 1525 1520 1515 1510 1504 1498 1493 1487 1482 1476 1470 1465 1459 1454 1449 1444 1439 1435 1430 1426
1588 1594 1596 1599 1605 1599 1582 1582 1584 1584 1579 1576 1573 1570 1567 1564 1559 1555 1551 1546 1542 1537 1532 1527 1523 1518 1513 1508 1502 1497 1491 1486 1480 1475 1469 1464 1459 1453 1448 1443 1438 1434 1430 1426
1583 1584 1586 1588 1588 1581 1580 1580 1580 1579 1576 1573 1570 1567 1563 1560 1556 1552 1548 1544 1539 1535 1530 1525 1521 1516 1512 1506 1501 1496 1491 1485 1479 1473 1468 1463 1458 1453 1447 1442 1437 1433 1429 1426
1578 1577 1580 1580 1579 1578 1579 1578 1577 1576 1573 1571 1567 1564 1560 1556 1553 1549 1545 1541 1537 1532 1528 1524 1519 1514 1509 1504 1500 1495 1490 1484 1478 1472 1467 1462 1457 1452 1447 1442 1438 1434 1430 1426
1574 1575 1577 1578 1576 1577 1577 1576 1575 1573 1570 1567 1564 1561 1557 1554 1550 1547 1543 1539 1535 1531 1526 1522 1517 1512 1507 1503 1498 1493 1488 1483 1477 1471 1466 1461 1457 1451 1446 1442 1438 1434 1430 1427
1571 1573 1576 1576 1574 1575 1575 1574 1573 1570 1568 1565 1562 1558 1554 1551 1548 1545 1541 1537 1533 1529 1525 1520 1515 1511 1506 1501 1496 1491 1487 1481 1476 1470 1465 1460 1455 1450 1445 1440 1436 1432 1430 1426